Location: Buchloe
(48.0161°N, 10.7316°E)
Time: 12:12:55
(UTC+02:00)

ISS - Pass Details

Date: 21 May 2018
Orbit: 402 x 407 km, 51.6° (Epoch: 24 May)

Event Time Altitude Azimuth Distance (km) Brightness Sun altitude
Rises 00:43:09 0° 267° (W) 2,315 0.1 -21.5°
Reaches altitude 10° 00:45:17 10° 273° (W) 1,456 -0.9 -21.6°
Maximum altitude 00:48:27 48° 349° (N) 533 -2.9 -21.6°
Drops below altitude 10° 00:51:38 10° 66° (ENE) 1,458 -0.8 -21.7°
Sets 00:53:46 0° 72° (ENE) 2,318 0.2 -21.7°
